Regional Weather Roundup
Issued by NWS Wakefield, VA

Home | Current Version | Previous Version | Text Only | Print | Product List | Glossary Off
Versions: 1 2 3 4 5 6 7 8 9 10 11 12 13 14 15 16 17 18 19 20 21 22 23 24 25 26 27 28 29 30 31 32 33 34 35 36 37 38 39 40 41 42 43 44 45 46 47 48 49 50

000
ASUS41 KAKQ 181414
RWRAKQ

REGIONAL WEATHER ROUNDUP
NATIONAL WEATHER SERVICE WAKEFIELD VA
1000 AM EDT SAT APR 18 2015

Note: "fair" indicates few or no clouds below 12,000 feet with no
significant weather and/or obstructions to visibility. * = Denotes
station may not report precipitation (e.g., rain,snow,etc.),
thunder or fog.

VAZ042-051-052>054-056-181500-
NORTHERN VIRGINIA

CITY           SKY/WX    TMP DP  RH WIND       PRES   REMARKS
WASH NATIONAL  MOSUNNY   71  54  54 NE7       30.04S
DULLES         MOSUNNY   69  51  52 VRB6      30.04S
FORT BELVOIR   SUNNY     71  52  49 VRB6      30.03F
QUANTICO       SUNNY     67  55  65 E8        30.04S
FREDERICKSBRG* SUNNY     71  54  53 NE6       30.03S
STAFFORD*      SUNNY     71  49  45 NE5       30.07S
WARRENTON      SUNNY     71  57  61 NE5       30.04R
CULPEPER*      SUNNY     72  55  56 N5        30.05R
MANASSAS*      SUNNY     70  54  56 N2        30.04S
LEESBURG*      SUNNY     70  52  52 N5        30.05F
WINCHESTER     SUNNY     68  48  49 CALM      30.05S
FRONT ROYAL*   FAIR      64  54  68 CALM      30.05S
LURAY*         FAIR      68  57  68 CALM      30.06S
$$

VAZ048-049-060>072-079>083-181500-
CENTRAL AND SOUTH CENTRAL VIRGINIA

CITY           SKY/WX    TMP DP  RH WIND       PRES   REMARKS
RICHMOND       PTSUNNY   71  56  58 NE10      30.02R
CHESTERFIELD*  NOT AVBL
PETERSBURG*    PTSUNNY   73  54  51 NE8       30.03R
HANOVER        MOSUNNY   70  56  61 VRB7      30.04R
TAPPAHANNOCK*  MOSUNNY   70  50  50 N8        30.03R
QUINTON*       FAIR      70  56  59 CALM      30.02R
CHARLOTTSVILLE SUNNY     68  57  68 NE6       30.04S
GORDONSVILLE*  FAIR      70  55  59 NE8G20    30.04R
ORANGE*        SUNNY     70  54  56 N8        30.06R
LOUISA*        SUNNY     70  57  64 NE9       30.03S
BUMPASS*       FAIR      69  54  59 N8        30.04S
FARMVILLE*     MOSUNNY   71  59  66 NE7       30.03R
CREWE*         FAIR      71  54  56 NE6       30.03R
FORT PICKETT*  FAIR      71  56  59 NE12      30.02S
CHASE CITY*    FAIR      72  62  71 NE7       30.02S
CLARKSVILLE*   FAIR      70  61  73 NE3       30.01S
SOUTH HILL*    SUNNY     70  60  72 NE5       30.07S
LAWRENCEVILLE* FAIR      71  59  66 CALM      30.02R
EMPORIA*       SUNNY     70  61  73 N7        30.02S
$$

VAZ088>098-181500-
SOUTHEAST VIRGINIA

CITY           SKY/WX    TMP DP  RH WIND       PRES   REMARKS
NORFOLK        MOSUNNY   67  60  78 N7        30.00R
VIRGINIA BEACH PTSUNNY   73  63  70 NW6       29.98S
NORFOLK NAVAL  PTSUNNY   69  59  70 NE12      30.01R
WEST POINT*    SUNNY     74  51  43 N7        30.03R
SALUDA*        FAIR      68  56  66 N6        30.01R
NEWPORT NEWS   MOSUNNY   73  61  65 NE9       30.01R
LANGLEY AFB    MOSUNNY   68  62  79 N12       29.99R
FORT EUSTIS    MOSUNNY   72  61  68 E7        29.98S
WILLIAMSBURG*  MOSUNNY   73  63  68 NE5       30.01S
HR EXEC AP*    FAIR      73  63  68 NE6       30.01R
FRANKLIN*      PTSUNNY  N/A N/A N/A N3        30.01R
WAKEFIELD      MOSUNNY   73  61  65 VRB5      30.01R
$$

VAZ020-022-025-037-045-181500-
WEST CENTRAL AND SOUTHWEST VIRGINIA

CITY           SKY/WX    TMP DP  RH WIND       PRES   REMARKS
STAUNTON*      SUNNY     64  55  70 CALM      30.08S
WAYNESBORO*    FAIR      64  56  75 CALM      30.07F
HOT SPRINGS VA PTSUNNY   60  50  69 E5        30.11F
LYNCHBURG      SUNNY     69  54  58 E12       30.06S
DANVILLE       PTSUNNY   72  57  59 E13       30.02S
SOUTH BOSTON*  FAIR      71  58  63 MISG      30.02S
MARTINSVILLE   PTSUNNY   71  58  64 NE8       30.07S
ROANOKE        SUNNY     69  53  56 CALM      30.07F
BLACKSBURG     SUNNY     66  53  62 SE6       30.11R
DUBLIN*        SUNNY     67  56  68 CALM      30.10R
MARION*        SUNNY     67  54  62 E6        30.11S
HILLSVILLE*    SUNNY     64  55  73 NE5       30.10R
RICHLANDS*     FAIR      65  52  62 NE5       30.10S
WISE*          SUNNY     64  52  63 NE9       30.10F
ABINGDON*      SUNNY     67  59  77 E6        30.08S
$$

MDZ021>025-VAZ099-100-181500-
SOUTHERN MARYLAND AND THE DELMARVA PENINSULA

CITY           SKY/WX    TMP DP  RH WIND       PRES   REMARKS
PATUXENT RIVER MOSUNNY   68  52  56 N9        30.02S
BAY BRIDGE APT NOT AVBL
LEONARDTOWN    SUNNY     68  50  52 NE5       30.04S
DOVER          SUNNY     67  52  57 NE7       30.00R
GEORGETOWN     SUNNY     68  54  60 E10       30.02S
EASTON         NOT AVBL
CAMBRIDGE      SUNNY     66  55  68 N6        30.02R
SALISBURY      MOSUNNY   67  59  75 VRB6      30.00F
OCEAN CITY     PTSUNNY   66  60  81 NE12      30.01S
WALLOPS ISLAND PTSUNNY   70  60  70 N7        30.00S
ACCOMACK*      PTSUNNY   70  59  68 N3        30.00R
$$

NCZ012>017-030>032-181500-
NORTH CENTRAL AND EASTERN NORTH CAROLINA

CITY           SKY/WX    TMP DP  RH WIND       PRES   REMARKS
ROANOKE RAPIDS FAIR      72  63  73 NE9       29.99F
RALEIGH        PTSUNNY   69  63  81 NE3       30.01R
ELIZABETH CITY PTSUNNY   73  64  73 N8        29.99S
AHOSKIE*       SUNNY     71  63  76 N6        29.99S
EDENTON*       PTSUNNY   73  64  75 N5        29.98F
CURRITUCK*     PTSUNNY   72  63  73 N6        29.99S
KILL DEVIL HLS PTSUNNY   70  65  85 CALM      29.98R
MANTEO         PTSUNNY   71  64  79 N5        29.99S
CAPE HATTERAS  LGT RAIN  66  63  90 VRB3      29.99S
TARBORO*       FAIR      70  65  84 N5        30.00S
GOLDSBORO      PTSUNNY   71  65  80 NE3       29.98R
WASHINGTON     CLOUDY    68  65  90 CALM      29.99S
GREENVILLE     CLOUDY    68  66  94 CALM      30.01R
NEW BERN       CLOUDY    73  65  75 E5        30.00S
WILMINGTON     LGT RAIN  68  66  93 NE10      30.00S
$$

VAZ048-181500-
ELSEWHERE

CITY           SKY/WX    TMP DP  RH WIND       PRES   REMARKS
HARRISBURG PA  PTSUNNY   64  50  60 CALM      30.03F
BALTIMORE      MOSUNNY   68  50  52 E6        30.03S
ANNAPOLIS      SUNNY     67  46  47 E8        30.03S
ANDREWS AFB    SUNNY     69  54  58 VRB3      30.03S
PHILADELPHIA   MOSUNNY   69  48  47 SE3       30.03S
HENDERSON NC   MOSUNNY   70  61  72 NE7       30.01S
GREENSBORO     MOSUNNY   70  62  76 NE8       30.01S
ROCKY MOUNT    PTSUNNY   70  63  78 VRB5      30.00R
$$

VAZ100-181500-
MARINE

STATION/POSITION TIME  TEMP    WIND        PRES    WAVE   SWELL
                       AIR SEA DIR/SP/G            HT/PER HT/PER
                 (UTC) (F)     (DEG/KT/KT) (MB)    (FT/S) (FT/S)
CAPE MAY NJ      1300   64 54   80/  4/  6 1015.9F
LEWES DE         1300   54 51  330/  2/  2 1016.3R
15NM E FENWICK I 1350   50 48              1015.7F   3/ 8
OCEAN-CITY-INLET 1300   58 48   10/  5/  6 1015.9R
WACHAPREAGUE VA  1300   68 60   10/  4/  7 1015.7F
THOMAS POINT MD  1400   62 54   10/  9/  9 1017.6R
GOOSES REEF MD   1400   58 56  360/  6/  8   N/A     0
COVE POINT MD    1300   62     350/ 11/ 11 1016.4F
SOLOMONS ISLAND  1300      55                N/A
BISHOPS HEAD MD  1300   65 63   10/  7/ 10 1015.8F
PINEY POINT MD   1312          350/  4/  4   N/A
CAMBRIDGE MD     1300   62 57  330/  2/  3 1016.3F
LEWISETTA VA     1300   65 59              1016.0F
RAPPAHANNOCK LGT 1300          360/ 11/ 12 1016.3F
STINGRAY PT      1400   58 57   20/  8/ 10 1017.9R   1
YORK RVR RNG VA  1300   62      10/  8/  8 1015.2F
YORKTOWN VA      1300   64 58   40/  4/  5 1015.6F
DOMINION TERM VA 1300   64     300/  1/  4 1015.6F
KIPTOPEKE VA     1300      60  340/  2/  4   N/A
CHES BAY BRIDGE  1300   60 54  300/  5/  6 1015.2F
CAPE HENRY VA    1300   64     290/  7/  9 1014.3F
CHESAPEAKE LGHT  1300   63                 1016.2F
WILLOUBY STN VA  1300   63      50/  3/  4 1016.2F
S CRANEY ISL VA  1300          360/  5/  7 1015.5F
CAPE HENRY BUOY  1328      55                N/A     3/ 7   2/11
1ST LANDING BUOY 1400   58     320/  6/  6 1015.4R   2/ 4
OFFSHORE WE BUOY 1311      49                N/A     3/ 7   3/ 7
64NM E OF VA BCH 1350   57 55  320/  4/  4 1014.9F   4/ 9   3/ 9
DUCK PIER NC     1300   68 53  300/  6/  8 1014.5F
44056 DUCK FRF   1311      54                N/A     3/ 8   2/11
OREGON INLET NC  1300   64 61  200/  3/  3 1015.6F
HATTERAS NC      1300   67 67   50/  2/  4 1015.1F
DIAMOND SHLS NC  1350   70 75   30/ 10/ 12 1015.7R   5/ 9   5/ 9
CAPE LOOKOUT NC  1400   67      40/  5/  5 1015.6R
$$


USA.gov is the U.S. government's official web portal to all federal, state and local government web resources and services.